Location: Chapel Hill
(35.9134°N, 79.0560°W)
Time: 09:57:29
(UTC-04:00)

Hubble Space Telescope - Visible Passes

Search period start: 13 July 2025 00:00
Search period end: 23 July 2025 00:00
Orbit: 488 x 490 km, 28.5° (Epoch: 12 July)

Date Brightness Start Highest point End Pass type
(mag) Time Alt. Az. Time Alt. Az. Time Alt. Az.
13 Jul 2.2 04:47:47 18° S 04:47:47 18° S 04:50:07 10° SSE visible
14 Jul 3.1 04:23:12 10° SSE 04:23:12 10° SSE 04:23:18 10° SSE visible
18 Jul 2.7 21:07:27 10° SSE 21:08:06 10° SSE 21:08:45 10° SSE visible
19 Jul 2.5 22:17:42 10° SW 22:19:04 17° SSW 22:19:04 17° SSW visible
20 Jul 1.8 21:50:52 10° SW 21:53:56 23° S 21:54:04 23° SSE visible
21 Jul 1.9 21:24:02 10° SW 21:27:07 23° S 21:28:55 17° SE visible
22 Jul 1.9 20:57:11 10° SW 21:00:18 24° S 21:03:25 10° ESE visible
22 Jul 2.7 22:36:44 10° WSW 22:37:58 17° SW 22:37:58 17° SW visible
